Temperature
9 9 9 9 10 11 12 12 13 13 13 13 13 14 14 14 14 14 14 14 14 15 15 15 16 16 16 16 16 16 16 17 17 17 17 17 17 17 17 17 17 17 17
8 9 9 10 10 10 11 12 12 13 13 13 13 13 13 13 13 13 14 14 14 14 14 15 15 15 16 16 16 16 16 16 17 17 17 17 17 17 17 17 17 17 17
9 9 10 10 10 10 11 11 12 12 12 13 13 13 13 13 13 13 13 13 13 13 14 14 14 15 15 16 16 16 16 16 16 17 17 17 17 17 17 17 17 17 17
9 10 10 10 10 10 10 11 11 11 11 12 12 12 12 12 12 12 13 13 13 13 13 13 14 14 14 15 15 16 16 16 16 16 16 16 17 17 16 16 17 17 17
9 9 10 10 10 10 10 11 11 10 11 11 11 12 12 12 12 12 12 12 12 12 12 13 13 13 13 14 14 15 15 16 16 16 16 16 16 16 16 16 16 17 17
9 9 9 10 10 10 10 10 10 10 10 10 10 11 11 11 11 11 11 12 12 12 12 12 12 12 13 13 14 14 14 15 15 15 16 16 16 16 16 16 16 16 16
9 9 9 9 9 9 9 10 10 9 9 9 9 9 9 10 11 10 11 11 11 11 11 11 11 12 12 13 13 13 14 14 14 15 15 16 16 16 16 16 16 16 16
8 8 9 9 9 9 9 9 9 8 8 8 8 8 8 8 8 8 9 10 10 10 11 11 11 11 12 12 12 13 13 13 14 14 15 15 15 15 15 16 16 16 16
8 8 8 8 8 8 8 7 7 7 6 6 6 6 6 6 6 6 7 8 8 9 9 9 10 11 11 11 12 12 12 13 13 14 14 15 15 15 15 16 16 16 16
7 7 7 7 7 7 6 6 5 5 5 4 4 4 4 5 5 5 6 6 6 7 7 8 9 10 10 11 11 11 12 12 13 13 14 14 15 15 15 15 16 16 16
7 6 6 6 5 5 4 4 4 3 3 3 3 2 3 3 4 4 4 4 4 5 5 6 7 8 9 10 10 11 11 12 12 12 13 14 14 14 15 15 16 16 16
5 5 5 4 3 3 3 2 2 2 2 2 1 1 1 1 2 2 3 3 3 3 4 5 5 6 7 8 10 10 10 11 11 12 12 13 13 14 14 14 15 15 15
4 3 2 2 2 2 2 1 1 1 1 1 0 -0 -0 -0 0 1 1 2 2 2 3 3 4 5 5 6 8 9 10 10 11 11 12 12 13 13 14 14 15 15 15
3 2 1 2 2 2 1 1 1 1 1 0 -0 -1 -1 -1 -1 -1 -1 -0 -0 -0 1 1 2 3 4 4 5 7 8 9 10 10 11 12 12 13 13 14 14 14 15
2 2 2 2 2 1 1 1 1 0 -0 -1 -1 -2 -2 -2 -2 -2 -2 -2 -2 -2 -1 -0 0 1 2 3 4 5 7 8 9 9 10 11 12 12 13 13 14 14 14
2 2 1 1 1 1 1 0 -0 -0 -1 -1 -2 -2 -3 -3 -3 -3 -3 -4 -4 -4 -3 -3 -2 -1 -0 1 2 3 5 6 8 9 10 10 11 12 12 13 13 14 14
2 1 1 1 0 0 0 -0 -1 -1 -2 -2 -2 -3 -3 -3 -4 -4 -4 -5 -5 -5 -5 -4 -4 -3 -2 -1 1 2 3 5 6 8 9 10 10 11 12 12 13 13 13
2 1 0 -0 0 -0 -0 -1 -1 -2 -2 -3 -3 -3 -4 -4 -5 -5 -5 -6 -6 -6 -6 -6 -6 -5 -4 -3 -1 1 2 3 5 6 7 9 9 10 11 11 12 12 13
1 0 -0 -0 -1 -1 -1 -1 -1 -2 -3 -3 -4 -4 -5 -5 -5 -6 -6 -7 -7 -7 -7 -7 -7 -7 -6 -5 -4 -2 0 2 4 5 6 7 8 9 10 10 11 12 12
1 -0 -1 -1 -1 -1 -1 -1 -2 -2 -3 -4 -4 -5 -5 -6 -6 -7 -7 -8 -8 -8 -8 -8 -8 -7 -7 -7 -6 -4 -2 1 2 3 5 6 7 8 9 9 10 11 11
0 -1 -2 -2 -2 -2 -2 -3 -3 -3 -4 -5 -5 -6 -6 -7 -7 -7 -8 -8 -9 -9 -9 -9 -9 -8 -8 -7 -7 -6 -2 -0 1 2 3 4 5 6 8 9 9 10 10
-1 -2 -2 -2 -3 -3 -4 -4 -5 -5 -5 -6 -6 -7 -7 -8 -8 -9 -9 -9 -10 -10 -10 -10 -9 -9 -9 -8 -7 -7 -5 -3 -1 1 2 2 3 4 6 8 8 9 10
-2 -2 -3 -3 -4 -4 -4 -5 -5 -5 -6 -6 -7 -8 -8 -9 -9 -9 -10 -10 -10 -10 -11 -10 -10 -10 -9 -8 -7 -7 -6 -5 -5 -2 -0 1 2 3 4 6 7 8 9
-2 -3 -3 -4 -4 -5 -5 -6 -6 -7 -8 -8 -9 -9 -9 -9 -9 -10 -10 -11 -11 -11 -11 -11 -11 -10 -10 -9 -8 -7 -7 -6 -6 -5 -3 -1 -0 1 3 4 6 7 8
-3 -3 -4 -4 -5 -5 -6 -7 -7 -8 -9 -9 -9 -10 -10 -10 -10 -11 -11 -11 -11 -11 -11 -11 -11 -10 -10 -9 -9 -8 -7 -6 -6 -6 -5 -4 -2 -0 1 3 5 7 8
-3 -4 -4 -5 -5 -6 -7 -7 -8 -9 -9 -10 -10 -11 -11 -11 -11 -11 -12 -12 -12 -12 -12 -12 -11 -11 -10 -9 -9 -8 -7 -7 -6 -6 -6 -5 -5 -2 -0 2 4 6 7
Wind_Speed
10 24 29 31 31 31 31 32 32 32 32 32 32 32 32 31 29 27 25 22 20 18 16 15 15 15 15 14 13 11 10 10 9 8 6 5 4 3 4 3 1 3 6
15 24 29 31 31 31 31 31 31 32 32 32 32 32 31 31 31 30 29 27 26 23 21 18 16 16 16 15 15 13 12 11 11 10 9 7 6 6 6 4 2 6 8
21 26 28 31 31 31 31 32 31 31 32 31 32 32 32 31 31 30 30 30 29 28 26 24 21 18 17 16 16 15 14 13 12 12 11 9 8 9 9 8 6 7 9
24 27 28 30 31 31 31 31 31 31 31 31 31 31 31 31 31 30 30 30 29 29 29 28 25 23 20 18 17 16 16 15 14 13 11 10 9 10 12 11 10 9 10
25 27 28 30 31 31 31 31 31 31 31 31 31 31 31 31 31 31 30 30 30 29 29 28 28 27 24 21 19 17 16 17 16 14 12 12 11 12 13 15 14 13 11
23 26 28 31 32 31 30 31 31 31 31 31 31 31 31 31 31 30 30 31 30 30 29 29 28 28 27 25 22 19 17 17 16 13 13 13 13 15 16 17 18 16 14
20 25 27 31 32 31 31 31 31 31 31 31 31 31 31 31 32 31 31 31 31 30 30 29 28 29 29 28 25 22 19 18 15 13 13 14 15 17 17 18 20 19 17
21 24 27 31 32 32 31 31 31 31 31 31 31 31 30 31 32 31 32 32 31 31 30 29 29 30 29 28 27 25 22 20 16 13 13 15 18 19 19 19 21 21 19
21 24 26 28 29 30 29 30 31 30 31 31 31 31 30 30 31 30 32 32 32 31 30 30 30 30 30 28 27 27 26 24 17 13 15 14 18 21 21 20 22 22 21
19 22 25 27 28 28 26 28 30 30 31 31 31 31 30 29 29 29 31 32 32 31 30 30 31 31 30 28 27 27 27 21 16 15 14 16 21 22 22 22 23 24 23
16 19 24 25 28 28 25 25 27 27 28 28 28 29 28 26 26 26 30 31 31 31 30 31 31 30 29 27 28 28 23 17 19 15 14 18 22 24 25 24 24 25 25
14 14 22 24 26 26 23 22 22 23 25 25 26 26 24 24 25 26 28 29 30 30 30 30 31 28 25 23 24 24 18 21 16 15 15 20 22 24 25 26 26 27 27
9 12 18 20 23 22 21 20 20 21 22 23 25 25 24 23 23 24 23 24 25 25 24 26 25 23 22 22 21 20 20 18 15 16 17 22 23 24 25 26 28 29 28
9 10 13 16 20 21 20 20 20 20 21 21 23 25 23 20 20 21 20 22 22 21 22 22 20 22 22 22 21 20 20 18 17 16 17 23 24 24 24 25 27 29 29
7 8 10 15 20 21 20 21 20 21 21 22 22 23 25 21 19 20 20 20 21 21 21 20 19 20 19 20 20 20 19 19 20 19 17 23 25 24 23 24 26 28 29
7 8 11 15 21 21 20 20 19 21 22 21 21 23 25 23 21 20 19 19 19 22 22 20 20 16 15 16 16 18 19 19 18 20 20 20 23 24 23 22 24 27 28
5 7 10 15 19 19 18 19 19 20 21 20 21 23 25 24 23 21 17 16 19 22 22 20 18 16 13 13 16 16 16 16 17 19 20 18 18 20 22 21 21 25 27
6 7 9 16 17 17 17 18 18 18 19 19 20 22 24 24 24 21 17 15 21 21 19 15 10 13 13 13 14 14 13 14 17 18 18 17 16 15 17 21 20 22 26
5 6 7 11 13 15 16 16 16 16 17 18 20 21 23 24 24 22 17 18 21 18 15 13 13 13 14 14 14 14 13 15 17 16 15 15 15 14 13 17 19 19 23
5 6 6 9 12 14 14 14 13 13 15 17 19 21 23 23 24 22 17 19 19 13 11 12 14 14 13 14 16 16 15 16 14 12 12 11 11 12 11 12 12 13 18
7 7 7 8 8 11 8 9 10 10 9 13 18 21 22 23 23 21 18 18 17 11 12 14 14 15 13 13 14 16 14 12 12 7 7 9 10 11 10 9 8 10 11
5 6 6 7 7 9 8 8 7 7 7 13 16 18 21 22 22 20 19 16 15 10 12 13 14 12 13 12 12 13 8 7 6 10 7 7 8 11 11 10 9 8 9
3 5 8 7 7 10 12 11 11 5 5 6 7 9 19 21 21 20 20 18 16 10 11 13 13 14 14 13 10 7 7 5 13 7 6 6 8 10 10 10 9 11 11
3 4 6 7 6 9 12 8 10 10 9 9 8 8 17 20 20 20 21 19 16 13 11 12 13 13 14 13 11 8 9 10 7 8 7 6 8 10 10 11 11 10 11
4 5 6 7 6 8 10 8 9 9 8 9 10 10 9 15 18 20 20 18 16 13 10 11 13 13 12 13 11 11 10 9 9 9 14 13 11 7 8 11 10 9 9
5 6 6 7 7 7 8 8 9 10 11 13 13 11 10 8 12 18 20 18 17 14 12 12 11 14 13 14 12 10 10 8 8 8 12 16 16 12 12 9 9 8 7
Wind_Direction
337 346 2 9 13 17 19 22 23 23 22 21 20 17 16 14 12 9 6 359 353 346 338 333 329 324 319 314 310 306 303 297 295 294 292 284 260 219 176 158 221 211 177
346 357 5 10 12 15 17 19 20 20 20 20 19 17 16 14 13 12 9 5 0 354 346 336 327 321 316 311 306 299 292 286 282 281 280 277 265 243 210 185 205 195 180
14 9 6 12 12 13 15 16 17 17 17 17 17 16 14 13 12 11 10 7 4 359 353 346 336 323 313 308 303 296 288 280 274 270 270 267 262 249 226 197 192 184 180
24 13 8 14 13 13 14 15 14 15 15 14 15 14 13 11 10 9 7 5 2 360 356 352 346 336 322 309 300 294 287 279 271 265 261 257 254 249 234 211 199 193 188
26 15 9 15 13 13 14 14 13 13 13 12 12 11 10 9 7 6 5 2 360 358 356 353 350 345 335 322 306 293 286 279 273 264 253 251 252 256 248 224 208 200 195
27 18 12 15 14 13 13 14 12 12 12 10 9 8 7 7 5 3 3 360 357 356 354 352 350 348 344 335 321 303 289 282 277 264 251 248 249 256 256 233 213 204 199
26 21 16 16 14 13 13 13 12 12 11 9 8 7 6 5 2 1 1 357 355 353 352 350 350 348 345 342 334 321 304 292 282 263 251 248 247 253 255 237 217 207 202
28 22 19 16 14 12 11 12 11 11 10 9 7 6 6 4 1 360 359 355 353 351 350 349 349 347 344 342 341 337 325 312 290 273 257 248 249 251 252 240 220 210 205
31 25 19 17 13 10 9 10 9 9 8 8 6 5 5 4 1 360 357 353 352 350 350 349 348 345 343 341 340 340 337 325 305 282 271 259 256 253 249 240 223 214 207
30 25 19 17 13 7 4 8 8 7 6 6 5 4 5 4 1 359 355 352 351 349 350 349 347 344 343 340 339 338 336 332 320 296 275 266 263 259 252 240 224 216 210
25 22 19 17 12 6 4 4 5 5 4 4 2 3 5 3 359 358 352 351 350 348 349 347 345 344 343 339 337 336 336 334 324 309 288 274 270 266 258 245 229 219 212
19 15 18 18 10 4 2 357 4 2 1 360 360 2 4 2 358 357 351 350 348 346 346 344 344 344 342 337 334 334 332 330 326 320 306 294 283 275 266 252 236 225 216
19 15 12 17 8 3 359 357 5 1 360 358 359 2 4 2 359 355 352 348 344 344 344 341 341 340 338 334 330 328 328 327 322 320 313 308 302 289 277 259 243 231 222
26 10 2 17 10 4 4 360 6 2 360 357 356 1 3 1 358 355 351 345 343 342 341 338 334 333 334 331 328 326 327 324 318 314 311 313 311 304 291 268 246 234 225
27 7 1 18 14 8 8 4 3 1 358 354 355 359 2 359 356 353 348 344 342 342 339 333 331 330 331 328 326 326 322 318 313 311 310 309 309 305 302 279 250 234 226
27 13 5 17 13 7 7 2 0 358 355 354 355 357 360 356 354 351 345 342 343 341 335 331 325 327 326 324 322 321 317 313 310 311 307 305 306 305 305 296 258 236 227
35 21 12 13 8 4 4 0 356 353 353 353 353 356 357 355 353 349 341 342 343 340 335 332 325 327 322 321 319 317 313 311 310 307 304 299 298 301 300 304 278 245 232
41 30 19 11 3 0 358 354 350 350 351 351 353 355 355 354 352 347 340 343 342 340 338 332 329 327 322 319 316 313 310 309 306 301 298 294 292 292 294 296 295 264 242
47 33 17 5 358 354 351 349 346 348 349 350 352 354 353 352 349 345 339 343 343 340 337 333 332 326 322 319 315 310 309 305 298 296 296 295 291 285 284 289 291 283 257
43 31 15 358 354 352 351 349 348 349 350 350 351 352 352 350 347 344 343 343 342 339 336 332 328 326 320 318 316 312 304 294 288 288 294 301 298 292 284 282 283 285 269
32 17 5 353 346 353 352 353 349 347 343 345 348 347 348 347 345 342 344 340 339 335 331 329 329 324 323 321 319 316 302 282 279 294 313 314 326 342 324 297 280 274 274
16 352 355 352 345 350 346 339 334 325 323 334 335 339 343 343 342 343 340 336 335 332 328 330 327 326 322 324 318 317 315 311 333 315 302 308 338 336 329 327 319 301 277
346 343 2 350 342 345 344 342 341 324 317 330 330 335 338 337 336 336 334 332 332 330 327 326 323 326 320 316 310 308 312 316 324 298 293 316 336 326 327 327 333 332 320
324 341 352 345 338 341 345 346 346 346 336 331 328 323 328 331 331 334 331 330 330 327 323 323 326 318 316 313 312 296 294 301 301 309 309 314 317 319 319 327 326 320 318
350 351 345 339 332 336 341 339 336 331 324 324 325 322 321 325 328 331 328 329 328 325 320 318 319 317 315 309 308 305 300 296 281 291 302 310 315 308 313 312 307 305 305
356 348 342 338 331 332 335 332 330 328 327 329 330 328 328 323 324 326 327 327 325 323 320 317 317 314 311 308 306 303 302 301 302 301 296 303 305 308 308 299 294 292 295
Height
1611 1608 1605 1601 1597 1594 1590 1587 1584 1580 1578 1575 1572 1570 1568 1565 1563 1560 1558 1556 1554 1552 1550 1549 1547 1546 1545 1544 1543 1542 1542 1541 1541 1541 1541 1540 1540 1540 1539 1539 1540 1540 1540
1614 1610 1606 1602 1598 1595 1591 1588 1584 1581 1578 1575 1572 1569 1567 1564 1562 1560 1557 1555 1552 1550 1548 1547 1545 1544 1542 1542 1541 1540 1539 1539 1539 1539 1539 1539 1538 1538 1538 1538 1539 1539 1540
1614 1611 1607 1603 1599 1596 1592 1588 1585 1582 1578 1575 1572 1569 1566 1563 1561 1558 1555 1553 1551 1548 1546 1544 1543 1541 1540 1538 1538 1537 1536 1536 1535 1536 1536 1536 1536 1536 1536 1537 1537 1538 1539
1615 1611 1607 1604 1600 1596 1593 1589 1585 1582 1578 1575 1571 1568 1565 1562 1559 1556 1553 1551 1548 1546 1543 1541 1539 1538 1536 1535 1534 1533 1533 1532 1532 1532 1533 1533 1534 1534 1534 1534 1535 1536 1537
1615 1612 1608 1604 1600 1597 1593 1589 1585 1581 1577 1574 1570 1567 1563 1560 1557 1554 1551 1548 1546 1543 1541 1538 1536 1534 1533 1531 1530 1529 1529 1528 1528 1528 1529 1530 1530 1531 1531 1532 1533 1534 1535
1615 1611 1608 1604 1600 1596 1592 1588 1584 1580 1576 1572 1568 1564 1561 1558 1554 1551 1548 1545 1542 1540 1537 1535 1533 1530 1529 1527 1526 1525 1525 1524 1524 1524 1524 1525 1526 1527 1527 1529 1530 1531 1532
1614 1611 1607 1603 1599 1595 1591 1586 1582 1578 1573 1569 1565 1561 1557 1554 1551 1547 1544 1541 1538 1536 1533 1530 1528 1526 1524 1523 1521 1520 1520 1519 1519 1519 1519 1520 1522 1523 1523 1525 1526 1527 1529
1614 1610 1607 1602 1598 1594 1589 1584 1580 1575 1571 1566 1562 1557 1553 1549 1546 1542 1539 1537 1533 1531 1528 1525 1523 1521 1520 1518 1516 1515 1514 1513 1513 1513 1514 1515 1517 1518 1519 1521 1522 1524 1525
1613 1609 1605 1601 1596 1592 1587 1582 1577 1573 1568 1563 1558 1554 1549 1545 1541 1538 1534 1532 1528 1525 1522 1519 1517 1515 1514 1512 1511 1509 1508 1507 1507 1507 1508 1509 1511 1512 1514 1515 1517 1519 1521
1612 1608 1603 1599 1594 1589 1584 1580 1575 1570 1565 1560 1556 1551 1546 1542 1538 1534 1530 1527 1523 1520 1516 1513 1511 1509 1507 1506 1505 1504 1503 1502 1501 1501 1501 1502 1504 1506 1508 1510 1512 1514 1516
1610 1606 1601 1596 1591 1587 1582 1577 1572 1568 1563 1558 1553 1548 1544 1539 1535 1530 1527 1523 1519 1515 1511 1508 1505 1502 1500 1500 1499 1498 1497 1496 1495 1495 1495 1496 1497 1499 1501 1503 1506 1508 1511
1608 1604 1600 1595 1589 1584 1579 1574 1569 1565 1560 1555 1550 1545 1540 1536 1532 1528 1523 1519 1514 1510 1506 1503 1500 1497 1494 1493 1492 1491 1490 1489 1488 1488 1488 1489 1490 1491 1493 1496 1499 1502 1505
1609 1604 1598 1593 1587 1582 1576 1572 1567 1562 1557 1553 1548 1542 1537 1533 1528 1524 1519 1515 1510 1505 1501 1498 1495 1491 1488 1486 1485 1483 1482 1482 1481 1481 1481 1482 1483 1484 1485 1488 1491 1494 1498
1608 1602 1596 1591 1586 1581 1576 1571 1565 1560 1555 1550 1546 1540 1534 1529 1524 1519 1515 1511 1506 1501 1497 1494 1490 1486 1483 1481 1479 1476 1475 1474 1474 1473 1474 1475 1475 1476 1477 1480 1483 1486 1490
1606 1601 1596 1590 1585 1580 1575 1570 1565 1559 1554 1549 1544 1539 1533 1527 1521 1516 1512 1507 1503 1498 1494 1489 1485 1481 1478 1475 1472 1470 1468 1466 1466 1466 1466 1467 1468 1469 1470 1472 1475 1478 1482
1605 1601 1596 1590 1585 1580 1574 1569 1564 1558 1553 1548 1543 1537 1531 1526 1520 1514 1509 1504 1499 1495 1490 1486 1481 1476 1472 1469 1466 1463 1461 1459 1458 1457 1458 1459 1460 1461 1463 1465 1468 1471 1475
1605 1600 1594 1589 1584 1579 1573 1568 1563 1558 1552 1547 1541 1535 1529 1523 1518 1512 1507 1501 1496 1491 1486 1482 1477 1472 1468 1463 1460 1457 1454 1452 1450 1450 1450 1451 1452 1454 1456 1458 1461 1464 1468
1604 1599 1593 1588 1583 1577 1572 1567 1562 1556 1551 1545 1539 1533 1527 1521 1515 1509 1504 1499 1493 1488 1483 1478 1473 1468 1463 1458 1453 1450 1447 1445 1443 1443 1443 1443 1444 1446 1448 1451 1454 1457 1461
1602 1597 1592 1586 1581 1575 1570 1565 1560 1554 1548 1542 1536 1530 1524 1518 1512 1507 1501 1496 1490 1485 1480 1475 1470 1465 1459 1454 1449 1444 1441 1438 1437 1436 1436 1436 1436 1438 1440 1443 1446 1449 1453
1601 1596 1590 1584 1578 1573 1567 1562 1557 1551 1545 1540 1534 1527 1521 1515 1509 1504 1498 1493 1487 1482 1476 1472 1467 1462 1458 1452 1446 1440 1435 1432 1431 1430 1429 1429 1430 1431 1433 1436 1439 1442 1446
1600 1594 1588 1582 1576 1570 1564 1557 1551 1546 1541 1535 1530 1525 1519 1512 1506 1501 1495 1489 1484 1479 1474 1469 1464 1459 1454 1450 1444 1435 1428 1427 1425 1424 1423 1424 1423 1423 1425 1428 1431 1434 1438
1597 1592 1586 1580 1574 1568 1562 1556 1551 1545 1539 1533 1527 1522 1516 1509 1503 1498 1492 1486 1481 1475 1470 1466 1461 1456 1451 1449 1444 1437 1429 1423 1420 1419 1418 1417 1417 1417 1418 1421 1424 1427 1430
1595 1590 1584 1578 1573 1567 1561 1555 1548 1541 1535 1529 1522 1517 1512 1506 1500 1495 1489 1483 1478 1472 1467 1462 1458 1454 1449 1446 1444 1442 1435 1428 1420 1411 1412 1412 1412 1412 1412 1414 1417 1420 1424
1593 1588 1583 1577 1571 1565 1559 1552 1545 1538 1531 1525 1519 1513 1508 1503 1497 1491 1485 1479 1474 1468 1463 1459 1455 1451 1447 1443 1440 1438 1436 1432 1427 1415 1407 1406 1407 1407 1407 1408 1411 1415 1419
1591 1586 1581 1575 1569 1563 1557 1550 1543 1537 1530 1523 1517 1510 1504 1498 1493 1487 1481 1475 1470 1464 1459 1455 1451 1447 1444 1440 1437 1434 1431 1428 1425 1421 1410 1402 1401 1401 1402 1402 1404 1409 1414
1589 1584 1578 1572 1567 1560 1554 1548 1541 1534 1527 1520 1512 1505 1499 1493 1487 1482 1477 1471 1465 1460 1454 1450 1446 1442 1439 1436 1433 1430 1428 1425 1421 1418 1413 1404 1398 1395 1396 1397 1398 1402 1407